Mankato, MN

8:58 AM CDT on October 17, 2019 (GMT -0500)
Mankato Regional

Weather History for KMKT - May, 2019

Change the Weather History Date:

Saturday, May 11, 2019

  Actual Average Record
Temperature  
Mean Temperature 51 °F -  
Max Temperature 62 °F 64 °F 86 °F (2004)
Min Temperature 41 °F 45 °F 37 °F (2008)
Degree Days  
Heating Degree Days 14    
Growing Degree Days 1 (Base 50)    
Moisture  
Dew Point 39 °F    
Average Humidity 64    
Maximum Humidity 83    
Minimum Humidity 39    
Precipitation  
Precipitation 0.00 in - - ()
Sea Level Pressure  
Sea Level Pressure 29.98 in    
Wind  
Wind Speed 11 mph (SSE)    
Max Wind Speed 20 mph    
Max Gust Speed 26 mph    
Visibility 10 miles    
Events      
Averages and records for this station are not official NWS values.
T = Trace of Precipitation, MM = Missing Value Source: NWS Daily Summary

Daily Weather History Graph

Daily Weather History Graph

Search for Another Location

Airport or City:

Astronomy

May. 11, 2019 Rise Set
Actual Time 5:53 AM CDT 8:31 PM CDT
Civil Twilight 5:20 AM CDT 9:04 PM CDT
Nautical Twilight 4:39 AM CDT 9:45 PM CDT
Astronomical Twilight 3:52 AM CDT 10:33 PM CDT
Moon 12:03 PM CDT (5/11) 2:13 AM CDT (5/11)
Length of Visible Light 15h 43m
Length of Day
14h 37m
Waxing Crescent, 46% of the Moon is Illuminated
May 11
Waxing Crescent
May 11
First Quarter
May 18
Full
May 26
Last Quarter
Jun 3
New

Hourly Weather History & Observations

Time (CDT) Temp. Windchill Dew Point Humidity Pressure Visibility Wind Dir Wind Speed Gust Speed Precip Events Conditions
12:56 AM 43.0 °F 38.2 °F 33.1 °F 68% 30.10 in 10.0 mi ESE 8.1 mph - N/A   Clear
1:56 AM 44.1 °F 39.5 °F 34.0 °F 68% 30.09 in 10.0 mi SE 8.1 mph - N/A   Clear
2:56 AM 43.0 °F 37.7 °F 32.0 °F 65% 30.07 in 10.0 mi SE 9.2 mph - N/A   Clear
3:56 AM 43.0 °F 37.7 °F 32.0 °F 65% 30.06 in 10.0 mi SE 9.2 mph - N/A   Clear
4:56 AM 41.0 °F 35.2 °F 33.1 °F 73% 30.05 in 10.0 mi ESE 9.2 mph - N/A   Clear
5:56 AM 43.0 °F 37.2 °F 33.1 °F 68% 30.03 in 10.0 mi ESE 10.4 mph - N/A   Clear
6:56 AM 44.1 °F 39.0 °F 35.1 °F 71% 30.03 in 10.0 mi SE 9.2 mph - N/A   Clear
7:56 AM 48.0 °F - 37.0 °F 66% 30.03 in 10.0 mi SSE 10.4 mph - N/A   Clear
8:56 AM 52.0 °F - 37.9 °F 59% 30.01 in 10.0 mi SSE 9.2 mph - N/A   Partly Cloudy
9:56 AM 55.9 °F - 39.9 °F 55% 30.00 in 10.0 mi SSE 10.4 mph - N/A   Partly Cloudy
10:56 AM 59.0 °F - 39.9 °F 49% 29.98 in 10.0 mi SSE 12.7 mph - N/A   Partly Cloudy
11:56 AM 61.0 °F - 36.0 °F 39% 29.96 in 10.0 mi South 15.0 mph 20.7 mph N/A   Mostly Cloudy
12:56 PM 57.0 °F - 41.0 °F 55% 29.96 in 10.0 mi South 15.0 mph 20.7 mph 0.00 in   Overcast
1:56 PM 57.0 °F - 42.1 °F 57% 29.96 in 10.0 mi South 19.6 mph 25.3 mph N/A   Overcast
2:56 PM 57.9 °F - 42.1 °F 56% 29.95 in 10.0 mi South 17.3 mph 26.5 mph N/A   Overcast
3:56 PM 57.0 °F - 41.0 °F 55% 29.94 in 10.0 mi South 16.1 mph 20.7 mph N/A   Overcast
4:56 PM 55.0 °F - 43.0 °F 64% 29.92 in 10.0 mi SSE 18.4 mph 25.3 mph N/A   Overcast
5:56 PM 55.9 °F - 42.1 °F 60% 29.91 in 10.0 mi SSE 16.1 mph 19.6 mph N/A   Overcast
6:56 PM 55.0 °F - 43.0 °F 64% 29.90 in 10.0 mi SSE 15.0 mph 25.3 mph N/A   Overcast
7:56 PM 52.0 °F - 42.1 °F 69% 29.90 in 10.0 mi SSE 15.0 mph 20.7 mph N/A   Mostly Cloudy
9:56 PM 48.9 °F - 43.0 °F 80% 29.89 in 10.0 mi SSE 10.4 mph - N/A   Scattered Clouds
10:56 PM 48.9 °F - 42.1 °F 77% 29.90 in 10.0 mi SSE 11.5 mph - N/A   Scattered Clouds
11:56 PM 48.0 °F - 43.0 °F 83% 29.91 in 10.0 mi SSE 11.5 mph 20.7 mph N/A   Overcast